Tracking 29892 objects as of 21-Nov-2024
HD Live streaming from Space Station
objects crossing your sky now

ARABSAT 1DR (TELSTAR 3A)

Track ARABSAT 1DR (TELSTAR 3A) now!
ARABSAT 1DR (TELSTAR 3A) is classified as:


NORAD ID: 14234
Int'l Code: 1983-077A
Perigee: 35,891.1 km
Apogee: 36,121.0 km
Inclination: 14.2 °
Period: 1,447.0 minutes
Semi major axis: 42377 km
RCS: 2.5151 m2 (large)
Launch date: July 28, 1983
Source: Arab Satellite Communications Organization (AB)
Launch site: AIR FORCE EASTERN TEST RANGE (AFETR)
Your satellite tracking list
Your tracking list is empty




NASA's NSSDC Master Catalog

Two Line Element Set (TLE):
1 14234U 83077A   24324.60155312  .00000037  00000-0  00000-0 0  9997
2 14234  14.1944 346.1768 0027119 162.5615 197.5082  0.99519262 40627
Source of the keplerian elements: AFSPC